Weather History for Camdenton, MO

Change the Weather History Date:

Friday, January 11, 2013

  Actual Average (KAIZ) Record (KAIZ)
Temperature  
Mean Temperature 54 °F -  
Max Temperature 62 °F 38 °F 64 °F (2013)
Min Temperature 46 °F 22 °F 0 °F (1997)
Degree Days  
Heating Degree Days 11    
Growing Degree Days 4 (Base 50)    
Moisture  
Dew Point 46 °F    
Average Humidity 76    
Maximum Humidity 100    
Minimum Humidity 48    
Precipitation  
Precipitation 0.00 in - - ()
Sea Level Pressure  
Sea Level Pressure 29.79 in    
Wind  
Wind Speed 11 mph (South)    
Max Wind Speed 20 mph    
Max Gust Speed 26 mph    
Visibility 10 miles    
Events      
Averages and records for this station are not official NWS values.
T = Trace of Precipitation, MM = Missing Value Source: NWS Daily Summary

Daily Weather History Graph

Daily Weather History Graph

Search for Another Location

Airport:

Trip Planner

Search our weather history database for the weather conditions in past years. The results will help you decide how hot, cold, wet, or windy it might be!

Date:

Astronomy

Jan. 11, 2013 Rise Set
Actual Time 7:26 AM CST 5:11 PM CST
Civil Twilight 6:57 AM CST 5:40 PM CST
Nautical Twilight 6:24 AM CST 6:13 PM CST
Astronomical Twilight 5:53 AM CST 6:44 PM CST
Moon 7:00 AM CST (1/11) 5:29 PM CST (1/11)
Length of Visible Light 10h 42m
Length of Day
9h 45m
Waning Crescent, 0% of the Moon is Illuminated
Jan 11
Waning Crescent
Jan 11
New
Jan 18
First Quarter
Jan 26
Full
Feb 3
Last Quarter

Hourly Weather History & Observations

Time (CST) Temp. Windchill Dew Point Humidity Pressure Visibility Wind Dir Wind Speed Gust Speed Precip Events Conditions
12:15 AM 50.0 °F - 50.0 °F 100% 29.81 in 10.0 mi South 8.1 mph - N/A   Clear
12:35 AM 48.2 °F - 48.2 °F 100% 29.81 in 10.0 mi South 8.1 mph - N/A   Clear
12:55 AM 48.2 °F - 48.2 °F 100% 29.80 in 10.0 mi South 6.9 mph - N/A   Clear
1:15 AM 48.2 °F - 48.2 °F 100% 29.82 in 10.0 mi SSW 8.1 mph - N/A   Clear
1:35 AM 48.2 °F - 48.2 °F 100% 29.82 in 10.0 mi SSW 9.2 mph - N/A   Clear
1:55 AM 48.2 °F - 48.2 °F 100% 29.84 in 10.0 mi SSW 11.5 mph 16.1 mph N/A   Mostly Cloudy
2:15 AM 48.2 °F - 48.2 °F 100% 29.84 in 10.0 mi SSW 9.2 mph - N/A   Overcast
2:35 AM 48.2 °F - 48.2 °F 100% 29.83 in 10.0 mi South 8.1 mph - N/A   Overcast
2:55 AM 48.2 °F - 48.2 °F 100% 29.82 in 10.0 mi South 6.9 mph - N/A   Overcast
3:15 AM 48.2 °F - 48.2 °F 100% 29.83 in 10.0 mi South 6.9 mph - N/A   Overcast
3:35 AM 48.2 °F - 48.2 °F 100% 29.82 in 10.0 mi South 5.8 mph - N/A   Overcast
3:55 AM 48.2 °F - 48.2 °F 100% 29.83 in 10.0 mi SSW 8.1 mph - N/A   Overcast
4:15 AM 50.0 °F - 50.0 °F 100% 29.83 in 10.0 mi SSW 9.2 mph - N/A   Overcast
4:35 AM 50.0 °F - 50.0 °F 100% 29.82 in 10.0 mi South 8.1 mph - N/A   Overcast
4:55 AM 50.0 °F - 50.0 °F 100% 29.83 in 10.0 mi South 9.2 mph - N/A   Overcast
5:15 AM 50.0 °F - 50.0 °F 100% 29.83 in 10.0 mi SSW 10.4 mph - N/A   Overcast
5:35 AM 50.0 °F - 50.0 °F 100% 29.83 in 10.0 mi SSW 9.2 mph - N/A   Overcast
5:55 AM 50.0 °F - 50.0 °F 100% 29.83 in 10.0 mi SSW 8.1 mph - N/A   Overcast
6:15 AM 50.0 °F - 50.0 °F 100% 29.84 in 10.0 mi South 8.1 mph - N/A   Overcast
6:35 AM 50.0 °F - 50.0 °F 100% 29.84 in 10.0 mi South 6.9 mph - N/A   Overcast
6:55 AM 50.0 °F - 50.0 °F 100% 29.83 in 10.0 mi South 8.1 mph - N/A   Overcast
7:15 AM 50.0 °F - 50.0 °F 100% 29.84 in 10.0 mi South 5.8 mph - N/A   Overcast
7:35 AM 48.2 °F - 48.2 °F 100% 29.83 in 10.0 mi SSE 8.1 mph - N/A   Scattered Clouds
7:55 AM 46.4 °F 41.9 °F 46.4 °F 100% 29.83 in 10.0 mi SSE 9.2 mph - N/A   Clear
8:15 AM 48.2 °F - 48.2 °F 100% 29.83 in 10.0 mi SSE 10.4 mph - N/A   Clear
8:35 AM 48.2 °F - 48.2 °F 100% 29.83 in 10.0 mi SSE 10.4 mph - N/A   Clear
8:55 AM 48.2 °F - 48.2 °F 100% 29.83 in 10.0 mi SSE 12.7 mph 17.3 mph N/A   Clear
9:35 AM 51.8 °F - 46.4 °F 82% 29.82 in 10.0 mi SSE 13.8 mph 20.7 mph N/A   Clear
9:55 AM 51.8 °F - 44.6 °F 76% 29.83 in 10.0 mi South 10.4 mph 19.6 mph N/A   Clear
10:15 AM 53.6 °F - 44.6 °F 72% 29.81 in 10.0 mi South 18.4 mph 23.0 mph N/A   Clear
10:35 AM 55.4 °F - 44.6 °F 67% 29.82 in 10.0 mi South 18.4 mph 23.0 mph N/A   Clear
10:55 AM 57.2 °F - 44.6 °F 63% 29.81 in 10.0 mi South 13.8 mph 24.2 mph N/A   Clear
11:15 AM 59.0 °F - 44.6 °F 59% 29.79 in 10.0 mi South 17.3 mph 24.2 mph N/A   Clear
11:35 AM 60.8 °F - 42.8 °F 52% 29.78 in 10.0 mi South 16.1 mph 23.0 mph N/A   Clear
11:55 AM 60.8 °F - 42.8 °F 52% 29.77 in 10.0 mi South 16.1 mph 25.3 mph N/A   Clear
12:15 PM 60.8 °F - 42.8 °F 52% 29.75 in 10.0 mi South 15.0 mph 23.0 mph N/A   Clear
12:35 PM 62.6 °F - 42.8 °F 48% 29.75 in 10.0 mi South 19.6 mph 24.2 mph N/A   Clear
12:55 PM 60.8 °F - 42.8 °F 52% 29.75 in 10.0 mi South 13.8 mph 24.2 mph N/A   Clear
1:15 PM 62.6 °F - 42.8 °F 48% 29.74 in 10.0 mi South 13.8 mph 26.5 mph N/A   Clear
2:15 PM 62.6 °F - 42.8 °F 48% 29.75 in 10.0 mi South 17.3 mph 25.3 mph N/A   Clear
2:35 PM 62.6 °F - 42.8 °F 48% 29.74 in 10.0 mi South 13.8 mph 23.0 mph N/A   Clear
2:55 PM 62.6 °F - 42.8 °F 48% 29.73 in 10.0 mi South 17.3 mph 25.3 mph N/A   Clear
3:15 PM 62.6 °F - 42.8 °F 48% 29.73 in 10.0 mi SSE 15.0 mph 21.9 mph N/A   Clear
3:35 PM 62.6 °F - 42.8 °F 48% 29.73 in 10.0 mi SSE 11.5 mph 23.0 mph N/A   Clear
3:55 PM 60.8 °F - 42.8 °F 52% 29.73 in 10.0 mi SSE 17.3 mph 23.0 mph N/A   Clear
4:15 PM 60.8 °F - 44.6 °F 55% 29.73 in 10.0 mi SSE 11.5 mph 19.6 mph N/A   Clear
4:35 PM 59.0 °F - 44.6 °F 59% 29.74 in 10.0 mi SSE 13.8 mph - N/A   Clear
4:55 PM 59.0 °F - 44.6 °F 59% 29.74 in 10.0 mi SSE 11.5 mph - N/A   Clear
5:15 PM 57.2 °F - 44.6 °F 63% 29.74 in 10.0 mi SE 16.1 mph - N/A   Clear
5:35 PM 57.2 °F - 44.6 °F 63% 29.73 in 10.0 mi SE 11.5 mph 18.4 mph N/A   Clear
5:55 PM 55.4 °F - 44.6 °F 67% 29.74 in 10.0 mi SE 12.7 mph - N/A   Clear
6:15 PM 55.4 °F - 44.6 °F 67% 29.74 in 10.0 mi SE 11.5 mph - N/A   Clear
6:35 PM 55.4 °F - 44.6 °F 67% 29.74 in 10.0 mi SE 11.5 mph - N/A   Clear
6:55 PM 55.4 °F - 44.6 °F 67% 29.75 in 10.0 mi SE 13.8 mph - N/A   Clear
7:15 PM 55.4 °F - 44.6 °F 67% 29.73 in 10.0 mi SE 13.8 mph 21.9 mph N/A   Clear
7:35 PM 55.4 °F - 44.6 °F 67% 29.75 in 10.0 mi SSE 13.8 mph 21.9 mph N/A   Clear
7:55 PM 55.4 °F - 44.6 °F 67% 29.74 in 10.0 mi SE 16.1 mph 20.7 mph N/A   Clear
8:15 PM 55.4 °F - 44.6 °F 67% 29.75 in 10.0 mi SSE 12.7 mph 20.7 mph N/A   Clear
8:35 PM 55.4 °F - 42.8 °F 63% 29.76 in 10.0 mi SE 16.1 mph 25.3 mph N/A   Clear
8:55 PM 55.4 °F - 42.8 °F 63% 29.77 in 10.0 mi SSE 15.0 mph 26.5 mph N/A   Clear
9:15 PM 55.4 °F - 42.8 °F 63% 29.77 in 10.0 mi SSE 15.0 mph 19.6 mph N/A   Clear
9:35 PM 55.4 °F - 42.8 °F 63% 29.77 in 10.0 mi SSE 13.8 mph 18.4 mph N/A   Clear
9:55 PM 57.2 °F - 42.8 °F 59% 29.79 in 10.0 mi SSE 12.7 mph 16.1 mph N/A   Clear
10:15 PM 55.4 °F - 42.8 °F 63% 29.78 in 10.0 mi SSE 15.0 mph 18.4 mph N/A   Clear
10:35 PM 55.4 °F - 42.8 °F 63% 29.78 in 10.0 mi SSE 12.7 mph - N/A   Clear
10:55 PM 55.4 °F - 42.8 °F 63% 29.79 in 10.0 mi South 9.2 mph 16.1 mph N/A   Clear
11:35 PM 57.2 °F - 42.8 °F 59% 29.78 in 10.0 mi South 10.4 mph 17.3 mph N/A   Clear